Voltar ao catálogo

BREEZE-M DEB

LostHEO
NORAD 32498·DEBRIS·🇷🇺 Russia

Lançado Feb 28, 2006 de Baikonur Cosmodrome

Loading…

Próximas Passagens (próximas 24 horas)

TLE

ObsoletoSource: Space-Track

Época: May 13, 2021, 05:36 UTC

1 32498U 06006AM  21133.23363051  .00003557  00000-0  29805-2 0  9997
2 32498  51.7426 255.4289 4951621 228.5903  76.9451  5.53830313268026

Acompanhe BREEZE-M DEB em tempo real com AllMySat

Download on the App Store